EW2804 Weather Reports


Display with metric or nautical units.
time (UTC)temp
F
wind
direction
speed
MPH
gust
MPH
rain 1hr
in
rain 24hr
in
rain mn
in
humidity
%
barometer
mb
20260503204557 82 184 3.0 12.0 0.00 0.01 0.01 33 1015.8
20260503202433 81 205 3.0 8.0 0.00 0.01 0.01 35 1016.2
20260503200327 81 109 4.0 10.0 0.00 0.01 0.01 36 1016.6
20260503195253 80 311 3.0 9.0 0.00 0.01 0.01 36 1016.7
20260503194258 81 281 3.0 8.0 0.00 0.01 0.01 33 1016.9
20260503192058 80 205 4.0 11.0 0.00 0.01 0.01 38 1017.4
20260503191112 80 232 4.0 15.0 0.00 0.01 0.01 33 1017.5
20260503190039 80 226 4.0 15.0 0.00 0.01 0.01 35 1017.6
20260503185045 80 155 3.0 10.0 0.00 0.01 0.01 38 1017.7
20260503184059 79 238 4.0 10.0 0.00 0.01 0.01 39 1017.9
20260503183059 80 298 3.0 9.0 0.00 0.01 0.01 38 1018.0
20260503175805 79 248 3.0 10.0 0.00 0.01 0.01 44 1018.7
20260503174749 79 238 3.0 12.0 0.00 0.01 0.01 40 1018.9
20260503173741 78 236 3.0 12.0 0.00 0.01 0.01 43 1019.0
20260503172752 77 226 5.0 10.0 0.00 0.01 0.01 42 1019.1
20260503170629 77 215 4.0 10.0 0.00 0.01 0.01 45 1019.4
20260503150457 71 253 3.0 10.0 0.00 0.01 0.01 55 1020.0
20260503140309 65 234 1.0 7.0 0.00 0.01 0.01 66 1020.0
20260503131111 54 0 0.0 0.0 0.00 0.01 0.01 88 1019.8
20260503110808 50 213 0.0 0.0 0.00 0.00 0.00 87 1018.9
20260503081557 53 213 0.0 0.0 0.00 0.00 0.00 85 1018.6
20260503080526 53 213 0.0 0.0 0.00 0.00 0.00 85 1018.7
20260503071303 54 213 0.0 0.0 0.00 0.00 0.00 84 1018.9
20260503070245 54 213 0.0 0.0 0.00 0.00 0.00 85 1019.0
20260503055043 54 213 0.0 0.0 0.00 0.00 0.00 83 1018.7
20260503054013 55 213 0.0 0.0 0.00 0.00 0.00 83 1018.7
20260503053035 55 213 0.0 0.0 0.00 0.00 0.00 82 1018.6
20260503050948 55 213 0.0 0.0 0.00 0.00 0.00 82 1018.5
20260503044814 56 213 0.0 0.0 0.00 0.00 0.00 81 1018.5
20260503043800 56 213 0.0 0.0 0.00 0.00 0.00 81 1018.5
20260503042821 57 213 0.0 0.0 0.00 0.00 0.00 81 1018.5
20260503041747 57 213 0.0 0.0 0.00 0.00 0.00 81 1018.5
20260503035643 57 213 0.0 0.0 0.00 0.00 0.00 79 1018.5
20260503034641 58 213 0.0 0.0 0.00 0.00 0.00 79 1018.5
20260503032539 58 213 0.0 0.0 0.00 0.00 0.00 77 1018.4
20260503031513 59 213 0.0 0.0 0.00 0.00 0.00 77 1018.3
20260503025255 60 213 0.0 0.0 0.00 0.00 0.00 74 1018.1
20260503024224 60 213 0.0 0.0 0.00 0.00 0.00 73 1018.0
20260503022127 62 213 0.0 0.0 0.00 0.00 0.00 70 1017.9
20260503021121 63 213 0.0 0.0 0.00 0.00 0.00 69 1017.8
20260503020121 64 213 0.0 0.0 0.00 0.00 0.00 66 1017.7
20260503015143 65 213 0.0 0.0 0.00 0.00 0.00 65 1017.7
20260503014146 67 213 0.0 0.0 0.00 0.00 0.00 62 1017.7
20260503013111 68 213 0.0 0.0 0.00 0.00 0.00 59 1017.6
20260503012131 70 213 0.0 0.0 0.00 0.00 0.00 58 1017.5
20260503011149 71 213 0.0 0.0 0.00 0.00 0.00 53 1017.5
20260503010157 72 213 0.0 0.0 0.00 0.00 0.00 54 1017.4
20260503005200 74 213 0.0 0.0 0.00 0.00 0.00 50 1017.4
20260503004203 75 213 0.0 0.0 0.00 0.00 0.00 45 1017.3
20260503003143 75 213 0.0 2.0 0.00 0.00 0.00 42 1017.3
20260503002200 76 213 0.0 2.0 0.00 0.00 0.00 42 1017.3
20260503001202 76 213 0.0 0.0 0.00 0.00 0.00 42 1017.2
20260503000203 76 213 0.0 3.0 0.00 0.00 0.00 40 1017.3
20260502235223 76 238 0.0 2.0 0.00 0.00 0.00 42 1017.4
20260502234147 76 237 1.0 4.0 0.00 0.00 0.00 37 1017.4
20260502233200 76 237 1.0 7.0 0.00 0.00 0.00 40 1017.4
20260502231017 77 293 2.0 7.0 0.00 0.00 0.00 39 1017.6
20260502225954 78 198 0.0 6.0 0.00 0.00 0.00 40 1017.6
20260502224934 77 250 0.0 7.0 0.00 0.00 0.00 36 1017.6
20260502223910 77 321 1.0 7.0 0.00 0.00 0.00 41 1017.7
20260502222855 76 298 2.0 6.0 0.00 0.00 0.00 42 1017.9
20260502221844 76 243 1.0 4.0 0.00 0.00 0.00 39 1018.0
20260502220821 76 226 1.0 8.0 0.00 0.00 0.00 36 1018.0
20260502214712 77 267 1.0 6.0 0.00 0.00 0.00 37 1018.1
20260502213639 76 192 1.0 3.0 0.00 0.00 0.00 40 1018.2
20260502212606 77 222 0.0 9.0 0.00 0.00 0.00 35 1018.4
20260502211618 77 236 2.0 9.0 0.00 0.00 0.00 40 1018.5
20260502205536 76 257 1.0 5.0 0.00 0.00 0.00 37 1018.7